PACDPAVC

Guest
Details From PACD - Cold Bay
To PAVC - KING COVE
Flight Number -
Tags generated
Created
Modified
Stats Distance 17 nm / 31 km
Max Altitude 0 ft / 0 m
Waypoints 2
Social Downloads 2
Likes 0
Share VATSIM

Download

Looking for another format? Having issues loading an existing format? Contact us
Advertisement - Login to hide

Notes

Basic altitude profile: - Ascent Rate: 2500ft/min - Ascent Speed: 250kts - Cruise Altitude: 35000ft - Cruise Speed: 420kts - Descent Rate: 1500ft/min - Descent Speed: 250kts Options: - Use NATs: yes - Use PACOTS: yes - Use low airways: yes - Use high airways: yes

Route

PACD PAVC

ID Type Via Altitude Latitude Longitude Leg Dist Tot Dist Heading (true) Name
O PACD APT - 0 ft / 0 m 55.20381˚ -162.72304˚ - 0 nm - Cold Bay
O PAVC APT - 0 ft / 0 m 55.11635˚ -162.26623˚ 16 nm 16 nm 108° / 109° KING COVE

Altitude Profile

Advertisement - Login to hide

PACD

Details ICAO PACD (CDB)
Name Cold Bay
Region USA (Alaska)
Timezone America/Nome (UTC-8.0)
Stats Elevation 98 ft / 30 m (AMSL)
Location 55.203815° -162.723041°
Runways 2
Magnetic Variation 10.664° E

METAR

PACD 240553Z 00000KT 10SM OVC090 06/03 A2945

Decode

TAF

PACD 240541Z 2406/2506 VRB05KT P6SM VCSH SCT020 OVC040 TEMPO 2406/2409 -SHRA BKN020 FM242100 VRB06KT P6SM VCSH BKN025 OVC040

Decode

Departure Runways

ID Width Length Bearing (true) Bearing (mag) Surface Threshold Offset Overrun Length
08 151 ft / 46 m 4,222 ft / 1,287 m 94.77° 84.11° Asphalt 0 ft / 0 m 0 ft / 0 m
14 151 ft / 46 m 10,407 ft / 3,172 m 158.39° 147.73° Asphalt 0 ft / 0 m 0 ft / 0 m
26 151 ft / 46 m 4,222 ft / 1,287 m 274.79° 264.13° Asphalt 0 ft / 0 m 0 ft / 0 m
32 151 ft / 46 m 10,407 ft / 3,172 m 338.41° 327.75° Asphalt 0 ft / 0 m 0 ft / 0 m

PAVC

Details ICAO PAVC (KVC)
Name KING COVE
Region USA (Alaska)
Timezone America/Nome (UTC-8.0)
Stats Elevation 155 ft / 47 m (AMSL)
Location 55.116347° -162.266228°
Runways 1
Magnetic Variation 10.845° E

METAR

PAVC 240556Z AUTO 19010KT 10SM -RA FEW019 BKN048 OVC070 05/03 A2948 RMK AO2 SLP989 P0000 60004 T00500033 10067 20050 53004

Decode

TAF

Not found

Destination Runways

ID Width Length Bearing (true) Bearing (mag) Surface Threshold Offset Overrun Length
07 115 ft / 35 m 3,350 ft / 1,021 m 84.99° 74.14° Gravel 0 ft / 0 m 0 ft / 0 m
25 115 ft / 35 m 3,350 ft / 1,021 m 265.01° 254.16° Gravel 0 ft / 0 m 0 ft / 0 m